Location: Albuquerque Trailhead
(34.7934°N, 106.3736°W)
Time: 23:58:47
(UTC+00:00)

Cosmos 1607 - Pass Details

Date: 20 June 2021
Orbit: 911 x 991 km, 65.0° (Epoch: 01 August)

Event Time Altitude Azimuth Distance (km) Brightness Sun altitude
Rises 06:27:34 0° 331° (NNW) 3,684 8.0 -31.0°
Reaches altitude 10° 06:30:10 10° 331° (NNW) 2,724 7.1 -31.1°
Enters shadow 06:35:59 75° 331° (NNW) 994 4.0 -31.3°
